Location: Catacaguana
(10.4120°N, 66.7591°W)
Time: 06:22:48
(UTC+00:00)

Cosmos 1110 Rocket - Pass Details

Date: 27 May 2022
Orbit: 751 x 781 km, 74.0° (Epoch: 26 June)

Event Time Altitude Azimuth Distance (km) Brightness Sun altitude
Exits shadow 08:12:48 45° 162° (SSE) 1,010 4.5 -25.6°
Maximum altitude 08:14:12 64° 102° (ESE) 827 4.2 -25.3°
Drops below altitude 10° 08:19:16 10° 21° (NNE) 2,267 7.1 -24.2°
Sets 08:21:39 0° 18° (NNE) 3,193 7.9 -23.7°
